Regional Weather Roundup
Issued by NWS

Home | Current Version | Previous Version | Graphics & Text | Print | Product List | Glossary On
Versions: 1 2 3 4 5 6 7 8 9 10 11 12 13 14 15 16 17 18 19 20 21 22 23 24 25 26 27 28 29 30 31 32 33 34 35 36 37 38 39 40 41 42 43 44 45 46 47 48 49 50
000
ASUS45 KSLC 281110
RWRUT

UTAH REGIONAL WEATHER ROUNDUP
NATIONAL WEATHER SERVICE SALT LAKE CITY UT
500 AM MDT FRI AUG 28 2015

UTZ001>011-023>025-281200-

NORTHERN UTAH

CITY           SKY/WX    TMP DP  RH WIND       PRES   REMARKS
BRIGHAM CITY   CLEAR     60  50  71 N6        30.19R
HILL AFB       CLEAR     64  43  47 E17       30.21R
LOGAN          CLEAR     50  47  89 W8        30.21S
OGDEN          CLEAR     64  44  48 S10       30.18S
PROVO AIRPORT  CLEAR     57  45  62 E5        30.22S
SALT LAKE CITY CLEAR     68  47  46 SE7       30.17S
VERNAL         CLEAR     57  40  52 W5        30.27F
WENDOVER       PTCLDY    66  41  39 W5        30.17S
HEBER CITY     CLEAR     46  41  81 CALM      30.32S
WEST JORDAN    CLEAR     61  41  48 CALM      30.20F

$$

UTZ012>022-026-027-281200-

SOUTHERN/CENTRAL UTAH

CITY           SKY/WX    TMP DP  RH WIND       PRES   REMARKS
BLANDING       PTCLDY    64  42  44 N3        30.31S
BRYCE CANYON   CLEAR     47  43  86 W9        30.42S
CEDAR CITY     CLEAR     54  46  74 CALM      30.26S
DELTA          CLEAR     59  42  53 E6        30.21R
HANKSVILLE     CLEAR     63  54  72 N3        30.20S
MILFORD        CLEAR     55  44  66 SW6       30.22S
MOAB/CYNLANDS  CLEAR     69  49  48 SE7       30.17S
PRICE          CLEAR     59  42  53 N8        30.28S
ST GEORGE      SUNNY     73  52  46 CALM      30.08S
KANAB          CLEAR     63  55  77 NE7       30.27S

$$

REGIONAL REPORTS     COLORADO/ARIZONA

CITY           SKY/WX    TMP DP  RH WIND       PRES   REMARKS
CRAIG, CO      CLEAR     46  44  93 CALM      30.34R
GRAND JUNCTION CLEAR     59  54  83 SW3       30.23F
RIFLE          CLEAR     52  49  89 S6        30.31R
MONTROSE       CLEAR     54  51  90 CALM      30.32R
CORTEZ         CLEAR     53  50  89 E6        30.25F
PAGE, AZ       CLEAR     73  51  46 S3        30.15R
GRAND CANYON   CLEAR     48  43  82 CALM      30.33F
KINGMAN        CLEAR     73  54  51 SE10      30.08S
FLAGSTAFF      CLEAR     50  49  96 CALM      30.35S

$$

REGIONAL REPORTS    NEVADA/IDAHO/WYOMING

CITY           SKY/WX    TMP DP  RH WIND       PRES   REMARKS
LAS VEGAS, NV  PTCLDY    84  52  33 W5        29.93S
ELY            PTCLDY    51  42  71 S13       30.31F
ELKO           PTCLDY    57  35  43 NE3       30.21S
POCATELLO, ID  CLEAR     56  43  61 E8        30.20R
BURLEY         CLEAR     55  48  77 CALM      30.13F
EVANSTON, WY   PTCLDY    53  38  56 S8        30.38S
ROCK SPRINGS   CLEAR     49  43  80 N6        30.35R
KEMMERER       CLEAR     45  36  70 N8        30.40R

$$



USA.gov is the U.S. government's official web portal to all federal, state and local government web resources and services.